星链-3184 (STARLINK-3184 )

导读

STARLINK-3184是美国SpaceX星链(Starlink)项目中的低轨通信卫星,于2022年1月19日发射入轨,属于星链V1.5系列卫星,配备激光星间链路模块,支持卫星间直接通信,助力构建全球覆盖的高效卫星互联网。作为星链星座的组成部分,它承担着为全球用户提供高速宽带互联网接入服务的任务,增强了星座的覆盖能力与连接稳定性,推动星链全球互联网服务的部署落地。

基本信息
目录编号:
51143
目录名称:
STARLINK-3184
国际标识:
2022-005AR
轨道中心:
EARTH
卫星名称:
星链-3184
卫星全名:
星链-3184 (STARLINK-3184 )
卫星状态:
在轨 (已飞行1690 天)
发射日期:
2022-01-19 UTC
国别 :
美国 (US)
星等 :
--
轨道信息
数据来源 国际轨道数据 AOE轨道数据
星历时间 2026-09-04T14:48:18+0800
1天前
查看轨道信息
2026-08-31T22:00:00+0800
4天前
查看轨道信息
半长轴 6840.844km 6840.89km
偏心率 0.0001231 0.0001105
轨道倾角 53.159° 53.158°
近地点辐角 99.515° 79.258°
升交点赤经 213.638° 230.937°
平近点角 260.599° 350.091°
近地点 461.864km 461.997km
远地点 463.55km 463.509km
周期 93.848分钟 93.849分钟
每日圈数 15.343989 15.343835
详细信息
固有亮度:
5
最大亮度:
2.5
卫星平台:
Starlink v1.5
覆盖范围:
全球
运营商:
太空探索技术公司
运营商所在国:
美国
制造商(研发单位):
太空探索技术公司
制造商所在国:
美国
使用方式:
暂无
卫星简介
星链(Starlink)计划是由太空探索技术公司(SpaceX)提出的一个巨型低轨卫星互联网星座项目,计划在2019年至2024年间在太空搭建由约1.2万颗卫星组成的“星链”网络,其中1584颗将部署在地球上空550千米处的近地轨道,并从2020年开始工作。该卫星仍在工作。
2D轨道图
3D轨道图
轨道高度分析图
轨道倾角分析图
轨道综合分析图
查看轨道综合分析图
交会数据列表
事件ID 空间交会对象 最接近时刻(TCA) 交会距离 交会风险概率(CRP) 交会风险指数(CRI) 操作
CDM_260906-165605-114306-915021
2026-09-06T
16:56:01+0000
0.762 km
远距离
4.033454E-5 中风险 0.67
CDM_260906-222405-114306-915021
2026-09-06T
22:24:17+0000
0.764 km
远距离
4.003111E-5 中风险 0.67
CDM_260906-012103-830205-114322
2026-09-06T
01:21:26+0000
2.612 km
极远距离
1.343013E-6 低风险 0.38
CDM_260906-074605-114305-285821
2026-09-06T
07:46:18+0000
2.882 km
极远距离
9.824961E-7 极低风险 0.35